Wind_Speed
40 41 42 44 45 46 47 47 47 47 47 47 48 49 50 51 52 52 52 53 55 56 58 59 60 61 63 64 65 66 67 69 70 68 68 68 68 69 69 69 69 69 70
39 40 40 41 42 43 44 45 46 47 47 48 49 50 51 52 52 53 54 55 56 57 58 60 61 62 63 64 65 66 67 69 70 69 68 68 69 69 69 70 71 71 71
37 38 39 40 41 42 43 44 46 47 48 48 49 49 50 51 52 53 55 56 57 58 59 61 62 62 63 64 65 65 67 68 69 69 69 69 69 70 70 70 71 71 71
36 37 38 40 41 43 44 45 46 47 47 48 48 49 50 51 52 53 55 56 57 59 60 62 62 63 63 64 65 66 66 67 68 69 70 69 69 70 70 70 69 69 70
37 38 39 41 42 43 44 45 45 46 46 47 48 49 51 53 54 55 56 57 57 59 60 61 62 63 63 64 65 66 67 67 69 69 70 69 69 69 69 69 69 69 68
37 39 40 41 42 42 43 44 44 45 46 47 49 50 51 53 54 56 57 57 58 58 59 60 61 61 63 64 65 66 68 68 68 69 69 68 67 67 67 68 68 68 67
38 39 41 41 42 42 43 43 44 46 48 48 49 51 52 53 54 55 56 57 58 59 60 60 61 61 63 64 64 65 66 66 67 67 66 65 65 64 65 65 66 66 64
39 40 41 41 42 42 42 43 44 45 46 47 49 50 52 53 54 55 56 57 58 59 59 60 61 61 62 63 64 63 63 64 64 63 63 63 63 63 63 64 63 62 61
39 40 41 41 41 42 42 43 44 44 46 48 49 50 51 52 53 54 55 56 57 58 58 60 61 61 61 61 61 61 61 60 60 60 61 61 61 61 61 62 61 60 58
39 40 41 41 42 42 43 44 45 46 47 49 49 50 51 52 53 54 55 56 57 57 57 58 58 58 58 59 59 60 59 59 58 58 58 59 58 58 58 58 57 56 54
40 41 41 42 43 44 44 45 45 46 47 48 49 50 51 52 53 54 55 55 56 56 56 56 55 55 56 57 57 57 57 57 57 56 56 55 54 54 53 52 52 52 50
41 42 43 44 45 45 46 46 46 47 48 48 49 50 51 52 53 54 54 54 54 54 54 54 54 55 55 56 56 55 56 56 55 55 54 53 52 50 49 49 48 48 47
43 45 46 47 46 46 47 47 47 48 49 50 50 50 51 51 52 53 53 53 52 52 52 53 53 54 54 54 54 54 54 54 53 52 51 50 49 48 47 46 45 44 43
46 47 48 48 47 47 47 48 49 49 49 50 50 51 51 52 52 52 51 51 51 51 52 52 53 53 54 54 54 53 52 52 51 50 49 48 47 46 45 44 42 41 39
47 48 48 48 48 47 48 48 48 48 49 50 50 51 52 52 52 52 51 51 51 51 52 52 53 53 52 52 52 51 51 50 49 48 47 46 44 44 43 41 40 39 38
47 48 48 47 47 47 47 47 48 48 49 49 50 51 51 51 51 51 50 51 51 51 52 52 52 52 52 51 50 49 49 48 47 46 45 44 43 42 41 39 38 37 37
47 48 48 47 47 47 47 47 47 48 49 49 50 51 51 51 50 50 50 50 50 50 51 51 51 51 51 50 49 48 47 46 45 44 44 43 42 41 40 38 37 37 36
48 48 47 47 47 47 47 47 48 48 48 49 49 50 50 50 49 49 49 49 48 49 50 50 50 50 49 48 48 47 46 44 43 43 41 40 40 39 38 38 37 36 36
48 48 48 47 47 47 48 48 49 49 49 48 48 48 48 48 48 49 49 48 48 48 48 48 49 48 48 46 46 46 44 43 42 41 40 39 38 38 37 36 36 35 35
50 49 49 48 48 48 49 49 48 48 47 47 47 47 47 48 48 48 48 47 47 47 47 48 48 47 46 45 45 44 43 42 41 39 38 37 37 36 36 35 34 35 35
51 51 50 49 49 49 48 48 47 46 46 46 46 47 47 48 47 47 47 47 46 46 46 47 47 46 45 45 44 44 43 41 40 38 37 36 36 36 35 34 35 35 34
51 51 50 49 48 48 48 47 47 46 46 46 47 47 47 47 47 47 46 45 45 45 45 46 46 45 45 44 43 42 41 40 38 37 36 35 36 36 35 34 34 34 33
52 51 50 48 48 48 47 47 46 46 46 46 47 47 47 47 47 46 45 45 44 45 45 45 45 44 44 43 42 41 40 38 36 36 35 35 35 35 34 34 33 33 33
52 51 49 48 48 47 47 46 46 46 46 46 46 47 46 46 46 46 45 44 44 44 44 44 44 44 43 42 40 39 38 36 35 35 35 35 35 35 34 33 33 32 32
52 51 50 48 47 47 46 46 46 46 46 46 46 46 46 46 45 45 45 44 44 43 43 43 43 42 41 40 39 38 37 36 36 36 35 35 34 33 32 31 31 31 30
53 51 50 48 48 47 46 46 46 46 46 46 46 46 46 45 45 44 43 43 42 42 42 42 42 41 40 39 38 37 36 35 35 35 35 34 33 32 31 30 30 29 29
Wind_Direction
281 282 283 284 284 284 285 286 286 287 288 288 289 290 291 291 291 290 291 292 292 292 292 292 291 291 291 291 290 290 291 291 291 291 290 289 289 287 286 285 283 282 281
284 285 286 287 288 288 287 287 287 288 289 290 290 290 292 292 292 292 292 293 293 294 293 293 293 293 293 293 293 292 293 293 292 292 291 290 289 288 287 286 284 284 282
287 288 288 289 290 290 290 290 291 291 291 291 292 292 292 293 293 294 294 294 295 295 295 295 295 294 294 294 294 294 294 294 294 293 293 292 290 289 288 287 286 285 284
289 289 290 290 291 291 292 292 293 293 293 294 294 294 294 296 296 297 297 296 296 297 297 297 296 296 295 295 296 296 296 296 295 295 294 294 293 291 290 289 288 287 287
292 292 292 292 292 293 293 294 294 294 295 296 296 296 296 297 298 298 299 299 299 299 298 298 297 297 297 297 297 297 297 297 297 297 296 295 293 292 291 290 290 289 288
294 294 294 294 294 294 295 295 295 296 296 297 297 297 298 298 299 299 300 301 301 301 301 301 300 299 299 299 298 298 299 299 299 299 297 296 295 294 293 292 292 291 289
296 296 296 296 295 295 296 297 298 298 298 298 299 299 300 300 301 301 302 302 302 303 302 302 302 301 300 300 300 300 300 300 300 300 299 298 297 296 295 295 294 294 293
297 297 297 297 297 297 298 298 299 299 300 300 301 301 301 302 302 302 303 303 303 304 303 303 303 302 302 302 302 301 301 301 301 300 300 300 299 298 297 297 297 296 295
298 298 299 300 300 300 299 299 299 299 300 301 301 302 302 303 304 304 305 305 304 304 304 304 304 304 304 303 303 303 303 302 302 301 301 300 300 299 299 298 297 297 296
300 301 302 302 301 301 300 300 300 301 302 303 303 303 304 305 305 306 306 306 305 305 305 306 306 306 306 305 305 306 305 304 303 303 302 302 301 301 300 300 299 298 298
302 302 303 303 302 302 302 301 302 303 303 304 304 304 305 306 306 306 306 306 307 307 308 308 307 307 307 308 308 308 307 306 306 305 305 304 304 303 303 302 301 300 299
302 303 303 304 303 303 302 302 302 303 303 304 304 305 306 307 307 307 307 307 308 308 309 309 309 309 309 310 310 309 308 308 307 307 307 306 305 304 304 303 302 301 300
302 303 304 304 303 303 302 302 302 303 303 304 304 305 306 307 308 308 308 308 308 310 310 311 311 311 311 311 311 310 309 309 309 309 308 307 306 305 305 304 303 302 301
303 303 304 303 302 302 302 302 302 303 304 305 306 306 307 308 308 309 310 310 311 311 311 311 312 312 313 313 312 311 311 311 311 310 309 309 308 307 306 305 304 302 301
303 304 303 302 302 302 302 303 304 305 305 306 307 308 309 309 310 311 311 312 312 312 313 313 313 313 313 313 313 312 312 312 312 311 310 310 309 309 309 307 306 304 303
303 304 304 303 302 303 303 304 305 306 306 307 308 309 310 310 310 310 311 312 313 313 314 315 315 315 315 315 314 313 313 313 312 311 310 310 310 310 309 308 308 307 306
305 305 304 303 302 303 304 304 305 305 306 307 308 309 310 310 311 311 312 312 313 314 315 315 316 316 315 315 314 314 314 314 313 312 311 310 310 310 309 308 307 307 307
305 305 304 303 303 303 304 305 305 305 306 307 308 309 310 311 312 312 312 312 313 314 315 315 316 317 316 316 316 315 315 315 314 314 313 312 311 311 310 308 307 306 306
305 305 304 303 303 303 304 304 305 305 306 307 308 309 310 311 312 313 313 313 313 314 315 316 317 318 318 318 318 317 316 315 315 315 314 314 313 312 311 310 309 309 308
305 304 303 302 302 303 303 304 304 305 306 306 307 309 310 311 312 313 313 313 314 314 315 316 317 318 318 318 319 318 317 316 316 315 315 315 314 314 313 312 311 310 310
304 303 302 302 302 303 303 303 303 304 305 306 307 309 310 311 312 312 313 313 313 314 315 316 317 318 317 318 318 318 318 317 317 316 316 315 315 315 315 313 312 312 312
304 303 302 301 301 302 302 302 303 303 305 306 307 309 310 311 312 312 312 313 313 314 315 317 317 317 318 318 318 318 317 317 316 316 316 315 315 315 315 313 312 313 313
304 303 301 300 300 301 302 302 303 303 304 305 307 308 309 310 311 311 312 312 313 314 315 316 317 317 317 318 318 318 317 317 316 315 315 315 316 316 316 315 314 314 314
304 302 300 299 300 300 301 302 302 303 304 305 307 308 309 309 310 311 311 312 313 315 316 317 317 317 317 317 317 317 317 317 317 317 317 316 317 316 316 315 315 315 316
302 301 300 299 299 299 300 301 302 303 304 305 306 307 308 309 310 311 311 312 313 314 315 316 317 317 317 316 317 316 316 316 317 317 318 317 318 317 316 315 315 316 317
300 300 298 298 298 299 299 300 300 301 302 303 305 306 307 309 310 311 311 312 314 315 316 317 317 318 317 317 317 316 315 316 317 317 318 318 318 317 316 315 315 316 317
Height
5678 5676 5674 5671 5669 5667 5664 5662 5659 5655 5652 5649 5646 5643 5639 5636 5632 5629 5625 5621 5616 5612 5608 5604 5599 5594 5589 5584 5578 5573 5567 5561 5557 5557 5552 5547 5542 5537 5533 5529 5525 5522 5519
5668 5666 5663 5661 5659 5656 5653 5650 5647 5644 5641 5638 5634 5630 5627 5623 5619 5615 5611 5607 5602 5598 5593 5588 5583 5577 5572 5567 5561 5555 5549 5543 5537 5535 5533 5527 5522 5516 5511 5507 5503 5499 5496
5658 5656 5654 5651 5648 5646 5642 5639 5636 5633 5629 5625 5622 5618 5614 5610 5606 5601 5597 5592 5588 5583 5577 5572 5566 5560 5555 5549 5543 5537 5531 5525 5518 5513 5511 5507 5501 5495 5489 5485 5480 5476 5472
5649 5647 5644 5641 5638 5635 5631 5628 5624 5621 5617 5613 5609 5605 5601 5596 5592 5587 5582 5577 5572 5567 5561 5555 5549 5543 5537 5531 5525 5519 5513 5506 5500 5494 5489 5485 5479 5473 5466 5462 5458 5454 5449
5640 5637 5634 5631 5627 5624 5620 5616 5613 5609 5605 5601 5597 5593 5588 5583 5578 5573 5567 5562 5557 5551 5545 5538 5532 5525 5519 5513 5507 5501 5494 5487 5480 5474 5468 5463 5458 5451 5445 5439 5434 5430 5427
5630 5627 5624 5620 5616 5613 5609 5605 5601 5597 5593 5589 5584 5580 5575 5569 5564 5558 5553 5547 5541 5535 5528 5522 5515 5509 5503 5496 5490 5483 5475 5468 5461 5454 5447 5441 5436 5430 5423 5417 5411 5407 5405
5621 5617 5613 5609 5606 5602 5598 5594 5590 5586 5581 5576 5572 5567 5561 5556 5550 5544 5538 5532 5525 5519 5512 5506 5500 5493 5486 5480 5473 5466 5458 5450 5442 5434 5427 5421 5415 5410 5403 5397 5391 5385 5381
5611 5607 5603 5599 5595 5591 5587 5583 5579 5574 5569 5564 5559 5554 5548 5542 5536 5530 5523 5517 5510 5503 5497 5490 5483 5476 5469 5462 5456 5449 5441 5434 5426 5418 5411 5404 5397 5390 5383 5377 5371 5366 5362
5602 5598 5594 5589 5585 5581 5576 5572 5567 5562 5557 5552 5546 5540 5535 5528 5522 5516 5509 5503 5496 5489 5482 5475 5468 5460 5453 5446 5439 5432 5425 5418 5410 5402 5394 5387 5380 5373 5365 5359 5353 5348 5344
5593 5589 5584 5579 5575 5570 5566 5561 5556 5551 5545 5539 5533 5527 5521 5515 5508 5501 5495 5489 5482 5476 5469 5461 5453 5445 5437 5429 5422 5415 5408 5401 5394 5387 5380 5372 5364 5357 5349 5342 5335 5330 5326
5583 5579 5574 5569 5564 5559 5554 5549 5544 5539 5533 5527 5521 5515 5508 5502 5495 5488 5481 5474 5467 5461 5454 5447 5439 5431 5423 5415 5407 5399 5392 5385 5378 5371 5364 5357 5350 5343 5335 5328 5321 5315 5311
5574 5569 5564 5559 5553 5548 5543 5537 5532 5526 5521 5515 5508 5502 5495 5489 5482 5475 5468 5460 5453 5446 5440 5433 5426 5418 5410 5402 5394 5386 5378 5370 5363 5356 5349 5342 5336 5329 5322 5315 5309 5303 5297
5563 5558 5552 5547 5541 5536 5530 5525 5520 5514 5508 5502 5496 5490 5483 5476 5469 5462 5455 5448 5441 5434 5427 5420 5412 5404 5397 5389 5381 5373 5365 5357 5350 5343 5336 5329 5322 5316 5309 5303 5297 5292 5287
5552 5546 5540 5535 5529 5524 5518 5513 5507 5502 5496 5490 5484 5478 5471 5464 5457 5450 5443 5436 5429 5422 5415 5408 5400 5392 5384 5376 5368 5360 5352 5344 5337 5330 5323 5317 5310 5304 5297 5291 5286 5282 5278
5540 5534 5528 5522 5517 5512 5506 5500 5495 5489 5483 5477 5471 5465 5458 5452 5444 5437 5430 5423 5416 5409 5402 5395 5388 5380 5372 5364 5356 5348 5340 5333 5325 5318 5312 5305 5299 5293 5287 5281 5276 5271 5267
5528 5522 5516 5510 5505 5500 5494 5489 5483 5477 5471 5465 5458 5452 5445 5438 5431 5425 5417 5410 5403 5396 5389 5382 5375 5367 5360 5352 5344 5336 5329 5321 5314 5307 5301 5294 5289 5283 5278 5272 5267 5262 5258
5515 5510 5504 5498 5493 5488 5482 5477 5472 5466 5459 5452 5446 5439 5432 5426 5419 5412 5405 5398 5391 5384 5377 5370 5362 5355 5347 5340 5332 5325 5318 5310 5303 5297 5290 5284 5279 5274 5268 5263 5258 5254 5249
5503 5497 5492 5486 5481 5476 5470 5465 5459 5453 5448 5441 5434 5427 5421 5414 5407 5400 5393 5387 5380 5373 5366 5358 5351 5343 5336 5328 5321 5314 5307 5300 5293 5287 5280 5275 5269 5264 5259 5254 5249 5245 5241
5491 5485 5479 5474 5469 5464 5458 5452 5447 5441 5435 5429 5423 5416 5409 5402 5395 5388 5381 5375 5369 5362 5355 5347 5340 5332 5325 5318 5311 5303 5297 5290 5284 5278 5272 5266 5261 5255 5250 5245 5241 5236 5232
5478 5473 5467 5462 5456 5451 5445 5439 5434 5428 5422 5416 5410 5404 5398 5391 5384 5377 5370 5363 5357 5351 5344 5337 5330 5322 5315 5308 5301 5294 5288 5281 5275 5269 5263 5258 5252 5247 5242 5237 5233 5229 5224
5466 5460 5454 5449 5443 5438 5432 5426 5421 5415 5410 5404 5398 5392 5385 5379 5372 5366 5359 5352 5346 5340 5333 5326 5319 5312 5305 5299 5292 5285 5279 5273 5267 5261 5255 5250 5245 5240 5235 5230 5225 5221 5216
5452 5447 5441 5435 5430 5425 5419 5414 5408 5403 5397 5392 5386 5379 5373 5367 5360 5354 5348 5341 5335 5329 5322 5316 5309 5302 5295 5289 5282 5276 5270 5264 5259 5253 5248 5243 5238 5232 5228 5223 5218 5213 5209
5439 5433 5427 5422 5416 5411 5406 5401 5395 5390 5385 5379 5374 5368 5362 5355 5349 5343 5337 5331 5324 5318 5312 5305 5299 5292 5286 5279 5273 5267 5262 5256 5251 5245 5241 5236 5231 5226 5221 5216 5211 5206 5201
5425 5419 5413 5408 5403 5398 5393 5388 5383 5378 5373 5367 5362 5356 5350 5344 5338 5332 5326 5320 5314 5308 5302 5295 5289 5283 5277 5270 5264 5258 5253 5248 5243 5238 5233 5228 5223 5219 5214 5209 5204 5199 5195
5410 5404 5399 5394 5389 5385 5380 5375 5370 5365 5360 5355 5350 5344 5339 5333 5327 5321 5315 5309 5304 5298 5292 5286 5280 5274 5268 5262 5256 5251 5245 5240 5236 5231 5226 5221 5217 5212 5207 5202 5198 5193 5189
5395 5389 5385 5380 5376 5371 5367 5362 5357 5353 5348 5343 5338 5333 5327 5322 5316 5310 5305 5299 5293 5288 5282 5276 5270 5264 5259 5253 5248 5243 5238 5233 5228 5224 5219 5214 5210 5205 5201 5196 5192 5188 5183